Time,TemperatureF,DewpointF,PressureIn,WindDirection,WindDirectionDegrees,WindSpeedMPH,WindSpeedGustMPH,Humidity,HourlyPrecipIn,Conditions,Clouds,dailyrainin,SoftwareType,DateUTC
2013-10-18 00:00:00,59.8,26.6,30.00,SW,235,0.0,0.0,28,0.00,,,0.00,WeatherTracker,2013-10-18 07:00:00,
2013-10-18 00:15:00,59.3,26.2,30.00,WSW,239,0.0,0.0,28,0.00,,,0.00,WeatherTracker,2013-10-18 07:15:00,
2013-10-18 00:30:00,58.4,26.3,30.01,WSW,239,0.0,0.0,29,0.00,,,0.00,WeatherTracker,2013-10-18 07:30:00,
2013-10-18 00:45:00,57.7,26.5,30.01,WSW,239,0.0,0.0,30,0.00,,,0.00,WeatherTracker,2013-10-18 07:45:00,
2013-10-18 01:00:00,58.0,25.9,30.01,WSW,252,0.0,0.0,29,0.00,,,0.00,WeatherTracker,2013-10-18 08:00:00,
2013-10-18 01:15:00,58.1,26.8,30.01,WNW,288,0.0,0.0,30,0.00,,,0.00,WeatherTracker,2013-10-18 08:15:00,
2013-10-18 01:30:00,57.0,25.1,30.02,WNW,287,0.0,0.0,29,0.00,,,0.00,WeatherTracker,2013-10-18 08:30:00,
2013-10-18 01:45:00,55.4,26.0,30.03,WNW,287,0.0,0.0,32,0.00,,,0.00,WeatherTracker,2013-10-18 08:45:00,
2013-10-18 02:00:00,54.2,25.7,30.03,WNW,287,0.0,0.0,33,0.00,,,0.00,WeatherTracker,2013-10-18 09:00:00,
2013-10-18 02:15:00,53.2,26.3,30.03,WNW,287,0.0,0.0,35,0.00,,,0.00,WeatherTracker,2013-10-18 09:15:00,
2013-10-18 02:30:00,51.4,27.9,30.04,WNW,287,0.0,0.0,40,0.00,,,0.00,WeatherTracker,2013-10-18 09:30:00,
2013-10-18 02:45:00,51.3,25.3,30.04,WNW,287,0.0,0.0,36,0.00,,,0.00,WeatherTracker,2013-10-18 09:45:00,
2013-10-18 03:00:00,51.6,24.9,30.04,WNW,287,0.0,0.0,35,0.00,,,0.00,WeatherTracker,2013-10-18 10:00:00,
2013-10-18 03:15:00,52.5,22.0,30.04,WNW,285,0.0,0.0,30,0.00,,,0.00,WeatherTracker,2013-10-18 10:15:00,
2013-10-18 03:30:00,53.7,22.2,30.04,WNW,285,0.0,0.0,29,0.00,,,0.00,WeatherTracker,2013-10-18 10:30:00,
2013-10-18 03:45:00,52.0,22.3,30.04,WNW,284,0.0,0.0,31,0.00,,,0.00,WeatherTracker,2013-10-18 10:45:00,
2013-10-18 04:00:00,50.7,24.1,30.05,WNW,285,0.0,0.0,35,0.00,,,0.00,WeatherTracker,2013-10-18 11:00:00,
2013-10-18 04:15:00,50.8,22.7,30.05,WNW,285,0.0,0.0,33,0.00,,,0.00,WeatherTracker,2013-10-18 11:15:00,
2013-10-18 04:30:00,50.8,22.7,30.05,WNW,287,0.0,0.0,33,0.00,,,0.00,WeatherTracker,2013-10-18 11:30:00,
2013-10-18 04:45:00,51.5,21.1,30.05,WNW,287,0.0,0.0,30,0.00,,,0.00,WeatherTracker,2013-10-18 11:45:00,
2013-10-18 05:00:00,51.5,24.8,30.05,WNW,287,0.0,0.0,35,0.00,,,0.00,WeatherTracker,2013-10-18 12:00:00,
2013-10-18 05:15:00,49.6,26.3,30.07,WNW,287,0.0,0.0,40,0.00,,,0.00,WeatherTracker,2013-10-18 12:15:00,
2013-10-18 05:30:00,48.5,25.3,30.08,WNW,287,0.0,0.0,40,0.00,,,0.00,WeatherTracker,2013-10-18 12:30:00,
2013-10-18 05:45:00,47.7,24.6,30.08,WNW,287,0.0,0.0,40,0.00,,,0.00,WeatherTracker,2013-10-18 12:45:00,
2013-10-18 06:00:00,48.5,23.4,30.08,WNW,287,0.0,0.0,37,0.00,,,0.00,WeatherTracker,2013-10-18 13:00:00,
2013-10-18 06:15:00,49.9,22.7,30.10,WNW,287,0.0,0.0,34,0.00,,,0.00,WeatherTracker,2013-10-18 13:15:00,
2013-10-18 06:30:00,49.2,22.7,30.11,SW,219,0.0,0.0,35,0.00,,,0.00,WeatherTracker,2013-10-18 13:30:00,
2013-10-18 06:45:00,52.3,22.6,30.10,West,263,0.0,0.0,31,0.00,,,0.00,WeatherTracker,2013-10-18 13:45:00,
2013-10-18 07:00:00,52.3,21.8,30.11,West,263,0.0,0.0,30,0.00,,,0.00,WeatherTracker,2013-10-18 14:00:00,
2013-10-18 07:15:00,51.3,21.7,30.12,West,263,0.0,0.0,31,0.00,,,0.00,WeatherTracker,2013-10-18 14:15:00,
2013-10-18 07:30:00,53.0,21.6,30.12,West,269,0.0,0.0,29,0.00,,,0.00,WeatherTracker,2013-10-18 14:30:00,
2013-10-18 07:45:00,54.3,21.9,30.12,West,263,0.0,0.0,28,0.00,,,0.00,WeatherTracker,2013-10-18 14:45:00,
2013-10-18 08:00:00,56.4,22.8,30.12,WSW,256,0.0,0.0,27,0.00,,,0.00,WeatherTracker,2013-10-18 15:00:00,
2013-10-18 08:15:00,57.5,23.8,30.13,West,268,0.0,0.0,27,0.00,,,0.00,WeatherTracker,2013-10-18 15:15:00,
2013-10-18 08:30:00,59.2,24.3,30.14,West,265,0.0,0.0,26,0.00,,,0.00,WeatherTracker,2013-10-18 15:30:00,
2013-10-18 08:45:00,61.5,25.4,30.13,West,261,0.0,0.0,25,0.00,,,0.00,WeatherTracker,2013-10-18 15:45:00,
2013-10-18 09:00:00,63.3,24.9,30.14,WSW,247,0.0,0.0,23,0.00,,,0.00,WeatherTracker,2013-10-18 16:00:00,
2013-10-18 09:15:00,64.9,25.1,30.14,WSW,249,0.0,0.0,22,0.00,,,0.00,WeatherTracker,2013-10-18 16:15:00,
2013-10-18 09:30:00,66.6,24.3,30.14,WNW,292,0.0,0.0,20,0.00,,,0.00,WeatherTracker,2013-10-18 16:30:00,
2013-10-18 09:45:00,68.2,23.1,30.14,WNW,283,0.0,0.0,18,0.00,,,0.00,WeatherTracker,2013-10-18 16:45:00,
2013-10-18 10:00:00,70.4,23.5,30.13,SSE,167,0.0,0.0,17,0.00,,,0.00,WeatherTracker,2013-10-18 17:00:00,
2013-10-18 10:15:00,71.9,23.3,30.13,SSE,167,0.0,0.0,16,0.00,,,0.00,WeatherTracker,2013-10-18 17:15:00,
2013-10-18 10:30:00,74.6,23.9,30.12,SSE,167,0.0,0.0,15,0.00,,,0.00,WeatherTracker,2013-10-18 17:30:00,
2013-10-18 10:45:00,76.5,22.0,30.11,SSE,167,0.0,0.0,13,0.00,,,0.00,WeatherTracker,2013-10-18 17:45:00,
2013-10-18 11:00:00,75.5,21.2,30.11,ESE,111,0.0,0.0,13,0.00,,,0.00,WeatherTracker,2013-10-18 18:00:00,
2013-10-18 11:15:00,75.0,20.8,30.11,SE,140,0.0,0.0,13,0.00,,,0.00,WeatherTracker,2013-10-18 18:15:00,
2013-10-18 11:30:00,75.8,21.5,30.10,NE,53,0.0,0.0,13,0.00,,,0.00,WeatherTracker,2013-10-18 18:30:00,
2013-10-18 11:45:00,75.3,22.8,30.11,SE,128,0.0,0.0,14,0.00,,,0.00,WeatherTracker,2013-10-18 18:45:00,
2013-10-18 12:00:00,75.4,19.3,30.10,ESE,103,0.0,0.0,12,0.00,,,0.00,WeatherTracker,2013-10-18 19:00:00,
2013-10-18 12:15:00,76.4,20.0,30.09,SSE,153,0.0,0.0,12,0.00,,,0.00,WeatherTracker,2013-10-18 19:15:00,
2013-10-18 12:30:00,76.7,20.3,30.09,ESE,121,0.0,0.0,12,0.00,,,0.00,WeatherTracker,2013-10-18 19:30:00,
2013-10-18 12:45:00,76.9,20.4,30.09,SE,140,0.0,0.0,12,0.00,,,0.00,WeatherTracker,2013-10-18 19:45:00,
2013-10-18 13:00:00,77.3,20.7,30.08,SE,141,0.0,0.0,12,0.00,,,0.00,WeatherTracker,2013-10-18 20:00:00,
2013-10-18 13:15:00,77.6,21.0,30.08,ESE,102,2.0,0.0,12,0.00,,,0.00,WeatherTracker,2013-10-18 20:15:00,
2013-10-18 13:30:00,78.5,21.7,30.07,ESE,119,0.0,0.0,12,0.00,,,0.00,WeatherTracker,2013-10-18 20:30:00,
2013-10-18 13:45:00,78.7,21.8,30.06,SE,130,0.0,0.0,12,0.00,,,0.00,WeatherTracker,2013-10-18 20:45:00,
2013-10-18 14:00:00,78.7,19.8,30.06,SE,140,0.0,0.0,11,0.00,,,0.00,WeatherTracker,2013-10-18 21:00:00,
2013-10-18 14:15:00,79.1,20.1,30.06,ESE,104,0.0,0.0,11,0.00,,,0.00,WeatherTracker,2013-10-18 21:15:00,
2013-10-18 14:30:00,79.0,20.0,30.05,SE,142,0.0,0.0,11,0.00,,,0.00,WeatherTracker,2013-10-18 21:30:00,
2013-10-18 14:45:00,79.0,20.0,30.05,SSE,147,2.0,0.0,11,0.00,,,0.00,WeatherTracker,2013-10-18 21:45:00,
2013-10-18 15:00:00,79.8,20.6,30.05,ESE,109,0.0,0.0,11,0.00,,,0.00,WeatherTracker,2013-10-18 22:00:00,
2013-10-18 15:15:00,79.4,20.3,30.05,SSE,148,5.0,0.0,11,0.00,,,0.00,WeatherTracker,2013-10-18 22:15:00,
2013-10-18 15:30:00,80.1,18.6,30.05,East,92,0.0,0.0,10,0.00,,,0.00,WeatherTracker,2013-10-18 22:30:00,
2013-10-18 15:45:00,80.0,20.8,30.04,ESE,110,2.0,0.0,11,0.00,,,0.00,WeatherTracker,2013-10-18 22:45:00,
2013-10-18 16:00:00,79.9,20.7,30.04,SE,134,0.0,0.0,11,0.00,,,0.00,WeatherTracker,2013-10-18 23:00:00,
2013-10-18 16:15:00,79.4,20.3,30.04,SSE,148,4.0,0.0,11,0.00,,,0.00,WeatherTracker,2013-10-18 23:15:00,
2013-10-18 16:30:00,79.1,17.9,30.04,SSE,155,3.0,0.0,10,0.00,,,0.00,WeatherTracker,2013-10-18 23:30:00,
2013-10-18 16:45:00,79.2,20.2,30.04,ESE,123,0.0,0.0,11,0.00,,,0.00,WeatherTracker,2013-10-18 23:45:00,
2013-10-18 17:00:00,78.7,19.8,30.04,SE,138,0.0,0.0,11,0.00,,,0.00,WeatherTracker,2013-10-19 00:00:00,
2013-10-18 17:15:00,78.7,19.8,30.04,SE,134,0.0,0.0,11,0.00,,,0.00,WeatherTracker,2013-10-19 00:15:00,
2013-10-18 17:30:00,78.2,19.4,30.05,SE,126,0.0,0.0,11,0.00,,,0.00,WeatherTracker,2013-10-19 00:30:00,
2013-10-18 17:45:00,77.3,18.7,30.05,ESE,105,0.0,0.0,11,0.00,,,0.00,WeatherTracker,2013-10-19 00:45:00,
2013-10-18 18:00:00,76.4,18.0,30.05,ESE,103,0.0,0.0,11,0.00,,,0.00,WeatherTracker,2013-10-19 01:00:00,
2013-10-18 18:15:00,75.2,19.1,30.06,ESE,102,0.0,0.0,12,0.00,,,0.00,WeatherTracker,2013-10-19 01:15:00,
2013-10-18 18:30:00,74.5,20.4,30.06,ESE,103,0.0,0.0,13,0.00,,,0.00,WeatherTracker,2013-10-19 01:30:00,
2013-10-18 18:45:00,71.7,25.9,30.07,ESE,103,0.0,0.0,18,0.00,,,0.00,WeatherTracker,2013-10-19 01:45:00,
2013-10-18 19:00:00,69.0,27.4,30.08,ESE,103,0.0,0.0,21,0.00,,,0.00,WeatherTracker,2013-10-19 02:00:00,
2013-10-18 19:15:00,67.0,24.6,30.08,ESE,103,0.0,0.0,20,0.00,,,0.00,WeatherTracker,2013-10-19 02:15:00,
2013-10-18 19:30:00,66.0,26.1,30.08,ESE,103,0.0,0.0,22,0.00,,,0.00,WeatherTracker,2013-10-19 02:30:00,
2013-10-18 19:45:00,64.9,25.1,30.08,ESE,103,0.0,0.0,22,0.00,,,0.00,WeatherTracker,2013-10-19 02:45:00,
2013-10-18 20:00:00,63.4,23.9,30.08,ESE,103,0.0,0.0,22,0.00,,,0.00,WeatherTracker,2013-10-19 03:00:00,
2013-10-18 20:15:00,63.2,20.3,30.07,ESE,103,0.0,0.0,19,0.00,,,0.00,WeatherTracker,2013-10-19 03:15:00,
2013-10-18 20:30:00,62.7,19.9,30.07,ESE,102,0.0,0.0,19,0.00,,,0.00,WeatherTracker,2013-10-19 03:30:00,
2013-10-18 20:45:00,62.5,18.4,30.07,ESE,103,0.0,0.0,18,0.00,,,0.00,WeatherTracker,2013-10-19 03:45:00,
2013-10-18 21:00:00,62.7,18.6,30.07,ESE,102,0.0,0.0,18,0.00,,,0.00,WeatherTracker,2013-10-19 04:00:00,
2013-10-18 21:15:00,62.3,18.3,30.06,ESE,103,0.0,0.0,18,0.00,,,0.00,WeatherTracker,2013-10-19 04:15:00,
2013-10-18 21:30:00,61.1,20.9,30.07,ESE,102,0.0,0.0,21,0.00,,,0.00,WeatherTracker,2013-10-19 04:30:00,
2013-10-18 21:45:00,59.0,21.3,30.08,ESE,103,0.0,0.0,23,0.00,,,0.00,WeatherTracker,2013-10-19 04:45:00,
2013-10-18 22:00:00,58.2,19.5,30.08,ESE,103,0.0,0.0,22,0.00,,,0.00,WeatherTracker,2013-10-19 05:00:00,
2013-10-18 22:15:00,58.2,20.6,30.07,ESE,103,0.0,0.0,23,0.00,,,0.00,WeatherTracker,2013-10-19 05:15:00,
2013-10-18 22:30:00,57.1,19.7,30.07,ESE,103,0.0,0.0,23,0.00,,,0.00,WeatherTracker,2013-10-19 05:30:00,
2013-10-18 22:45:00,56.6,18.2,30.07,ESE,103,0.0,0.0,22,0.00,,,0.00,WeatherTracker,2013-10-19 05:45:00,
2013-10-18 23:00:00,56.3,20.0,30.08,ESE,103,0.0,0.0,24,0.00,,,0.00,WeatherTracker,2013-10-19 06:00:00,
2013-10-18 23:15:00,55.0,17.9,30.08,ESE,103,0.0,0.0,23,0.00,,,0.00,WeatherTracker,2013-10-19 06:15:00,
2013-10-18 23:30:00,54.9,16.8,30.08,ESE,103,0.0,0.0,22,0.00,,,0.00,WeatherTracker,2013-10-19 06:30:00,
2013-10-18 23:45:00,53.8,16.9,30.08,ESE,103,0.0,0.0,23,0.00,,,0.00,WeatherTracker,2013-10-19 06:45:00,